Location: Newark
(50.0336°N, 22.0047°E)
Time: 06:05:15
(UTC+00:00)

Envisat - Visible Passes

Search period start: 26 January 2020 00:00
Search period end: 05 February 2020 00:00
Orbit: 764 x 766 km, 98.1° (Epoch: 25 January)

Date Brightness Start Highest point End Pass type
(mag) Time Alt. Az. Time Alt. Az. Time Alt. Az.
26 Jan 6.1 03:56:43 10° NE 03:59:46 16° E 04:02:47 10° SE visible
26 Jan 3.0 05:34:20 10° NNE 05:39:27 82° WNW 05:44:32 10° SSW visible
26 Jan 4.4 16:53:52 10° SSW 16:58:38 41° W 17:03:26 10° NNW visible
27 Jan 4.0 04:57:38 10° NNE 05:02:36 50° E 05:07:32 10° S visible
27 Jan 3.1 16:16:38 10° SSE 16:21:44 81° WSW 16:26:51 10° NNW visible
27 Jan 6.3 17:59:26 10° WSW 18:01:35 13° W 18:03:44 10° WNW visible
28 Jan 5.4 04:21:21 10° NE 04:25:33 25° E 04:29:45 10° SSE visible
28 Jan 5.3 17:20:09 10° SSW 17:24:20 25° W 17:28:31 10° NW visible
29 Jan 6.3 03:46:07 10° ENE 03:48:18 13° E 03:50:30 10° ESE visible
29 Jan 3.2 05:23:02 10° NNE 05:28:09 82° ESE 05:33:15 10° SSW visible
29 Jan 4.0 16:42:21 10° S 16:47:17 50° W 16:52:14 10° NNW visible
30 Jan 4.5 04:46:26 10° NNE 04:51:15 41° E 04:56:02 10° SSE visible
30 Jan 3.0 16:05:21 10° SSE 16:10:26 83° ENE 16:15:33 10° NNW visible
30 Jan 6.0 17:47:07 10° SW 17:50:08 16° W 17:53:09 10° NW visible
31 Jan 5.7 04:10:20 10° NE 04:14:09 21° E 04:17:56 10° SE visible
31 Jan 5.0 17:08:28 10° SSW 17:12:56 31° W 17:17:26 10° NNW visible
01 Feb 3.5 05:11:45 10° NNE 05:16:51 67° ESE 05:21:54 10° S visible
01 Feb 3.6 16:30:56 10° S 16:35:57 62° W 16:41:01 10° NNW visible
02 Feb 4.9 04:35:16 10° NNE 04:39:54 33° E 04:44:28 10° SSE visible
02 Feb 3.0 15:54:07 10° SSE 15:59:09 68° ENE 16:04:13 10° N visible
02 Feb 5.8 17:35:05 10° SW 17:38:41 19° W 17:42:18 10° NW visible
03 Feb 6.0 03:59:26 10° NE 04:02:43 17° E 04:05:59 10° SE visible
03 Feb 4.6 16:56:51 10° SSW 17:01:33 38° W 17:06:17 10° NNW visible
04 Feb 3.9 05:00:31 10° NNE 05:05:31 54° E 05:10:30 10° S visible
04 Feb 3.3 16:19:33 10° S 16:24:38 76° WSW 16:29:45 10° NNW visible
04 Feb 6.4 18:02:52 10° WSW 18:04:33 11° W 18:06:13 10° WNW visible
